TimeCST,TemperatureF,Dew PointF,Humidity,Sea Level PressureIn,VisibilityMPH,Wind Direction,Wind SpeedMPH,Gust SpeedMPH,PrecipitationIn,Events,Conditions,WindDirDegrees,DateUTC
12:56 AM,45.0,43.0,93,30.09,9.0,WNW,3.5,-,N/A,,Clear,300,2012-11-21 06:56:00
1:56 AM,45.0,43.0,93,30.09,9.0,NW,4.6,-,N/A,,Clear,320,2012-11-21 07:56:00
2:56 AM,44.1,42.1,93,30.10,7.0,NW,4.6,-,N/A,,Clear,320,2012-11-21 08:56:00
3:56 AM,44.1,43.0,96,30.10,10.0,NW,3.5,-,N/A,,Clear,310,2012-11-21 09:56:00
4:56 AM,42.1,41.0,96,30.10,7.0,Calm,Calm,-,N/A,,Clear,0,2012-11-21 10:56:00
5:56 AM,44.1,42.1,93,30.11,10.0,Calm,Calm,-,N/A,,Clear,0,2012-11-21 11:56:00
6:56 AM,44.1,41.0,89,30.13,10.0,Calm,Calm,-,N/A,,Clear,0,2012-11-21 12:56:00
7:56 AM,52.0,48.0,86,30.15,10.0,Calm,Calm,-,N/A,,Partly Cloudy,0,2012-11-21 13:56:00
8:56 AM,63.0,48.0,58,30.16,10.0,North,6.9,-,N/A,,Clear,350,2012-11-21 14:56:00
9:56 AM,68.0,48.0,49,30.15,10.0,North,5.8,-,N/A,,Clear,10,2012-11-21 15:56:00
10:56 AM,71.1,46.9,42,30.13,10.0,Variable,5.8,-,N/A,,Clear,0,2012-11-21 16:56:00
11:56 AM,73.0,46.9,39,30.10,10.0,NNE,8.1,-,N/A,,Clear,20,2012-11-21 17:56:00
12:56 PM,73.9,46.9,38,30.08,10.0,NNW,10.4,-,N/A,,Clear,340,2012-11-21 18:56:00
1:56 PM,75.0,46.9,37,30.07,10.0,NNW,13.8,-,N/A,,Scattered Clouds,330,2012-11-21 19:56:00
2:56 PM,73.9,46.9,38,30.06,10.0,North,11.5,-,N/A,,Partly Cloudy,10,2012-11-21 20:56:00
3:56 PM,72.0,46.9,41,30.07,10.0,NNW,10.4,-,N/A,,Clear,340,2012-11-21 21:56:00
4:56 PM,64.9,48.0,54,30.09,10.0,NNW,5.8,-,N/A,,Clear,340,2012-11-21 22:56:00
5:56 PM,62.1,48.9,62,30.10,10.0,Calm,Calm,-,N/A,,Clear,0,2012-11-21 23:56:00
6:56 PM,57.9,48.0,70,30.12,10.0,Calm,Calm,-,N/A,,Clear,0,2012-11-22 00:56:00
7:56 PM,52.0,48.9,89,30.13,10.0,Calm,Calm,-,N/A,,Clear,0,2012-11-22 01:56:00
8:56 PM,50.0,46.9,89,30.14,10.0,Calm,Calm,-,N/A,,Clear,0,2012-11-22 02:56:00
9:56 PM,50.0,46.9,89,30.14,10.0,WNW,3.5,-,N/A,,Clear,290,2012-11-22 03:56:00
10:56 PM,48.9,46.0,90,30.14,10.0,NW,4.6,-,N/A,,Clear,310,2012-11-22 04:56:00
11:56 PM,48.0,46.0,93,30.14,10.0,Calm,Calm,-,N/A,,Clear,0,2012-11-22 05:56:00